User: anonymous   Login
Location: Unspecified
(0.0000°N, 0.0000°E)
Time: 07:13:53
(UTC+00:00)
Language:

NANOSAT-1 - Orbit

View from above orbital plane
View from above orbital plane
View from above satellite
View from above satellite

Ground track
Ground track

The orbit data is extracted from the following two-line orbital elements,

1 28493U 04049B   17178.90019351 +.00000074 +00000-0 +19431-4 0  9998
2 28493 098.2020 248.5613 0003932 345.3267 014.7825 14.73322030672495
Epoch (UTC): 27 June 2017 21:36:16
Eccentricity: 0.0003932
inclination: 98.2020°
perigee height: 648 km
apogee height: 653 km
right ascension of ascending node: 248.5613°
argument of perigee: 345.3267°
revolutions per day: 14.73322030
mean anomaly at epoch: 14.7825°
orbit number at epoch: 67249

The dashed part of the orbit path shows where the satellite is in the earth's shadow,  

DLR